Погода в Санкти-Спиритус

Куба     21°55′31″N   79°26′14″W
темп.,
°C
ветер,
м/с
пор.,
м/с
влажн.,
%
обл.,
%
осадки,
мм/ч
давл.,
гПа
погр.,
м
23 сентября, чт
чт2323:00+24св229469 0.0 101322
02:00+23всв1194100 0.1 101215
05:00+22вюв1196100 0.0 101111
08:00+23вюв119469 0.0 101259
11:00+28вюв227144 0.0 1013746
14:00+31юв125534 0.0 10111239
17:00+31зюз11538 0.0 10101175
20:00+25ссв22845 0.0 101233
24 сентября, пт
пт2423:00+23ссв119247 0.0 101417
02:00+23с119421 0.0 101311
05:00+23св019521 0.0 101211
08:00+24вюв119285 0.0 101453
11:00+28юв227321 0.0 1015770
14:00+31всв025839 0.0 10131677
17:00+29с127060 0.6 1012358
20:00+25св238997 1.4 101452
25 сентября, сб
сб2523:00+24св1190100 3.1 101512
02:00+23юв11927 3.1 101513
05:00+23всв11935 0.0 101411
08:00+24в119117 0.0 101564
11:00+28вюв23745 0.0 1016689
14:00+31всв125923 0.0 10151545
17:00+29с347080 0.2 1013328
20:00+24св249012 1.8 101573
26 сентября, вс
вс2623:00+24ссв229189 1.7 101631
02:00+23всв01915 1.7 101511
05:00+23всв11935 0.0 101511
08:00+24в119152 0.0 101647
11:00+28в1174100 0.0 1017623
14:00+30зсз1265100 0.0 10151132
17:00+29св3471100 0.1 1013428
20:00+24ссв2386100 0.4 101559
27 сентября, пн
пн2723:00+23с1192100 0.1 101612
02:00+23с1194100 0.1 101512
05:00+23ссз119486 0.0 101411
08:00+24с1191100 0.0 101553
11:00+28св236913 0.1 1016966
14:00+31ссв235763 0.3 10141776
17:00+27ссв3578100 4.3 1013288
20:00+24с3890100 4.8 1014191